Location: Robert Ferguson Observatory
(38.4385°N, 122.5078°W)
Time: 07:02:56
(UTC-08:00)

Daily predictions for brighter satellites

Satellite Brightness Start Highest point End
(mag) Time Altitude Azimuth Time Altitude Azimuth Time Altitude Azimuth
CENTAUR R/B 2.9 18:11:44 10° S 18:17:08 40° ESE 18:23:11 10° NE
Cosmos 2333 Rocket 2.8 18:12:22 10° NNW 18:17:59 64° WSW 18:23:32 10° S
IRS-1A Rocket 4.5 18:12:35 10° SSE 18:18:24 90° W 18:24:19 10° NNW
Cosmos 2082 3.7 18:13:42 10° SSW 18:19:16 72° ESE 18:24:54 10° NNE
Cosmos 2056 Rocket 3.7 18:16:10 10° NNW 18:21:37 87° WSW 18:27:02 10° SSE
CZ-2C R/B 4.1 18:18:17 10° N 18:22:42 66° WNW 18:27:04 10° SSW
Aureole 3 4.4 18:17:37 10° SSE 18:23:30 49° E 18:28:13 10° NNE
Lacrosse 5 2.1 18:19:48 10° NW 18:24:51 76° SW 18:29:53 10° SE
Shenzhou-11 Module 4.0 18:25:04 10° W 18:27:40 27° SSW 18:30:16 10° SSE
Cosmos 1452 Rocket 3.9 18:22:45 10° N 18:27:44 41° ENE 18:32:40 10° SE
Cosmos 1437 Rocket 4.4 18:25:49 10° SE 18:28:15 16° E 18:30:42 10° NE
SPOT 3 Rocket 3.6 18:24:31 10° SSE 18:29:36 58° ENE 18:34:44 10° N
EO 1 Del DPAF 3.3 18:27:37 10° NNE 18:31:23 53° E 18:35:07 10° S
Cosmos 158 Rocket 4.1 18:27:09 10° S 18:31:48 46° ESE 18:36:28 10° NNE
Iridium 4 Rocket 4.1 18:28:30 10° NNE 18:32:38 28° E 18:36:28 10° SE
Cosmos 405 2.9 18:31:37 10° S 18:35:06 85° E 18:38:38 10° N
Cosmos 1980 4.1 18:33:23 10° NNW 18:39:02 68° WSW 18:44:40 10° S
Gbstr 26 Del rocket 4.4 18:37:20 10° SSE 18:39:44 16° SE 18:41:22 13° E
Landsat 4 3.7 18:38:08 10° NNE 18:41:54 84° W 18:45:38 10° SSW
COSMOS 2455 4.4 18:39:37 10° SE 18:42:03 13° E 18:42:51 12° E
Cosmos 1378 Rocket 4.0 18:39:20 10° N 18:43:27 38° ENE 18:47:34 10° SSE
ATLAS 3B R/B 4.5 18:40:11 10° WSW 18:46:20 29° NW 18:52:19 10° NNE
Cosmos 1420 Rocket 4.2 18:43:09 10° N 18:48:18 51° ENE 18:53:27 10° SE
Cosmos 1782 Rocket 4.4 18:45:34 10° SSE 18:49:24 29° E 18:53:14 10° NNE
Sich 1 Rocket 4.0 18:46:48 10° SSE 18:51:02 41° E 18:55:15 10° NNE
COSMO-SKYMED 1 4.4 18:54:16 10° N 18:58:10 33° WNW 19:02:02 10° SW
FengYun 1-2 T 4.1 18:53:12 10° SSE 18:58:40 71° ENE 19:04:08 10° N
OAO 2 Rocket 3.8 18:55:41 10° WSW 19:00:25 46° SSE 19:03:24 21° ESE
BREEZE-M DEB (TANK) 3.9 18:57:53 10° S 19:00:26 29° ESE 19:03:04 19° ENE
Cosmos 1464 Rocket 3.9 19:00:02 10° N 19:06:10 75° E 19:12:18 10° SSE
Okean 2 Rocket 3.9 19:03:27 10° SSE 19:07:09 27° E 19:10:53 10° NNE
Tiangong 2 1.5 19:05:45 10° WNW 19:08:54 59° SSW 19:10:20 28° SE
SJ-6B 2.9 19:06:11 10° SSE 19:09:48 47° ENE 19:13:29 10° N
FREGAT/IRIS 2.4 19:06:54 10° SSE 19:09:50 89° ESE 19:12:49 10° N
ARGOS Delta rocket 4.0 19:09:16 10° NNE 19:13:56 47° E 19:18:20 10° S
SeaSat 1 2.8 19:12:43 22° ESE 19:15:33 43° ENE 19:20:13 10° NNW
HJ-1C 3.3 19:14:21 10° SSE 19:17:45 73° ENE 19:21:10 10° N
H-2A R/B 3.7 19:14:45 10° S 19:18:33 50° W 19:22:22 10° NNW
Envisat 3.1 19:14:07 10° SE 19:18:59 49° ENE 19:23:52 10° N
Cosmos 2227 Rocket 4.2 19:16:09 10° WSW 19:20:56 28° WNW 19:25:45 10° N
Thor Agena Rocket 3.4 19:17:39 10° NNE 19:22:43 66° ESE 19:27:42 10° S
Cosmos 2237 Rocket 4.2 19:18:20 10° NW 19:23:09 30° WSW 19:27:57 10° SSW
Cosmos 44 Rocket 3.3 19:19:39 10° NNW 19:24:44 89° SW 19:29:03 15° SSE
Okean 1 3.1 19:21:43 10° N 19:25:43 83° E 19:29:40 10° S
Cosmos 1633 4.1 19:23:49 10° SSW 19:27:07 36° W 19:30:27 10° N
USA 32 4.0 19:22:05 10° S 19:27:19 87° W 19:32:34 10° N
SL-16 R/B 2.4 19:21:50 10° NNW 19:27:29 73° WSW 19:33:06 10° SSE
Cosmos 1269 Rocket 3.9 19:23:20 10° SSW 19:28:37 83° ESE 19:33:56 10° NNE
Cosmos 1908 Rocket 4.4 19:24:57 10° SSW 19:29:19 52° W 19:33:42 10° N
USA 215 3.2 19:24:42 14° NE 19:30:27 90° NW 19:37:00 10° SW
ERS-2 3.1 19:27:02 10° S 19:30:35 49° W 19:34:12 10° NNW
Meteor 1-13 Rocket 4.3 19:28:17 10° N 19:33:37 47° ENE 19:35:21 35° ESE
BREEZE-M R/B 3.9 19:31:50 10° NW 19:34:39 60° NE 19:36:45 36° E
Cosmos 921 Rocket 2.9 19:30:17 10° NNW 19:34:49 82° ENE 19:37:34 23° SSE
Cosmos 2297 Rocket 4.3 19:30:19 10° WSW 19:34:54 25° WNW 19:39:33 10° N
Cosmos 1110 Rocket 4.5 19:30:07 10° N 19:35:03 38° ENE 19:35:05 38° ENE
Cosmos 494 Rocket 4.2 19:30:47 10° S 19:35:42 44° ESE 19:36:01 44° E
CZ-2D R/B 3.1 19:33:14 17° SSE 19:36:09 87° ENE 19:40:04 10° N
Cosmos 2034 Rocket 4.1 19:35:17 10° N 19:41:41 79° W 19:48:01 10° S
Resurs 1-3 4.2 19:45:42 40° NNE 19:45:42 40° NNE 19:48:50 10° N
Cosmos 1603 3.8 19:40:29 10° NNW 19:46:01 52° ENE 19:46:32 50° E
Cosmos 2346 Rocket 4.3 19:41:42 10° S 19:47:52 72° E 19:54:01 10° N
Cosmos 1602 4.0 19:44:57 10° SSW 19:48:49 65° W 19:52:42 10° N
Cosmos 1634 Rocket 4.0 19:48:57 10° N 19:54:53 52° ENE 19:54:53 52° ENE
Resurs 01 Rocket 2.2 19:57:45 45° N 19:57:45 45° N 20:00:55 10° N
Cosmos 1975 Rocket 3.5 19:53:27 10° NNW 19:57:52 62° W 20:01:16 16° S
USA 267 3.9 20:01:53 36° NE 20:02:34 37° NNE 20:08:28 10° NNW
Cosmos 2263 Rocket 3.9 19:59:34 10° S 20:00:56 18° S 20:00:56 18° S
CENTAUR R/B 3.8 20:02:11 10° WSW 20:07:46 36° NW 20:14:06 10° NNE
Cosmos 1331 Rocket 4.3 20:02:41 10° NNW 20:06:54 53° NNE 20:06:54 53° NNE
CZ-4C R/B 3.6 20:01:50 10° NNW 20:08:04 36° NE 20:08:04 36° NE
Spot 2 Rocket 3.9 20:10:10 51° N 20:10:10 51° N 20:14:00 10° N
Geosat 4.2 20:11:37 44° N 20:13:07 68° WNW 20:18:06 10° SW
Meteor 1-11 Rocket 3.9 20:12:31 10° SSW 20:18:03 71° W 20:23:44 10° N
Meteor 2-4 Rocket 3.7 20:13:18 10° N 20:19:07 83° W 20:19:13 83° WSW
COSMOS 2455 3.0 20:21:05 10° SSW 20:26:07 65° SW 20:26:07 65° SW
SeaSat 1 4.5 20:52:31 22° WSW 20:53:10 23° WSW 20:57:02 10° NW
CZ-4C R/B 4.5 21:50:03 10° NW 21:53:17 28° NW 21:53:17 28° NW
